TimeCST,TemperatureF,Dew PointF,Humidity,Sea Level PressureIn,VisibilityMPH,Wind Direction,Wind SpeedMPH,Gust SpeedMPH,PrecipitationIn,Events,Conditions,WindDirDegrees,DateUTC
12:56 AM,43.0,30.9,62,30.30,10.0,South,4.6,-,N/A,,Clear,170,2012-11-18 06:56:00
1:56 AM,45.0,30.9,58,30.29,10.0,SSE,10.4,-,N/A,,Clear,160,2012-11-18 07:56:00
2:56 AM,43.0,30.0,60,30.29,10.0,SSE,8.1,-,N/A,,Partly Cloudy,160,2012-11-18 08:56:00
3:56 AM,42.1,28.9,60,30.27,10.0,SSE,8.1,-,N/A,,Partly Cloudy,150,2012-11-18 09:56:00
4:56 AM,42.1,28.9,60,30.26,10.0,SSE,10.4,-,N/A,,Clear,160,2012-11-18 10:56:00
5:56 AM,41.0,30.0,65,30.26,10.0,SSE,8.1,-,N/A,,Mostly Cloudy,160,2012-11-18 11:56:00
6:56 AM,39.9,30.0,68,30.25,9.0,SSE,9.2,-,N/A,,Clear,150,2012-11-18 12:56:00
7:56 AM,42.1,30.9,65,30.25,7.0,SSE,9.2,-,N/A,,Overcast,150,2012-11-18 13:56:00
8:56 AM,44.1,30.9,60,30.24,7.0,SSE,6.9,-,N/A,,Overcast,160,2012-11-18 14:56:00
9:56 AM,46.0,30.9,56,30.23,8.0,SSE,9.2,-,N/A,,Mostly Cloudy,160,2012-11-18 15:56:00
10:56 AM,48.0,30.9,52,30.22,10.0,South,11.5,-,N/A,,Mostly Cloudy,170,2012-11-18 16:56:00
11:56 AM,55.0,30.9,40,30.19,10.0,South,13.8,-,N/A,,Mostly Cloudy,170,2012-11-18 17:56:00
12:56 PM,54.0,30.0,40,30.17,10.0,South,15.0,24.2,N/A,,Overcast,170,2012-11-18 18:56:00
1:56 PM,55.0,30.0,38,30.16,10.0,South,16.1,-,N/A,,Overcast,170,2012-11-18 19:56:00
2:56 PM,57.0,30.0,36,30.16,10.0,South,17.3,23.0,N/A,,Mostly Cloudy,170,2012-11-18 20:56:00
3:56 PM,55.0,30.0,38,30.15,10.0,South,16.1,24.2,N/A,,Mostly Cloudy,170,2012-11-18 21:56:00
4:56 PM,54.0,30.0,40,30.15,10.0,SSE,15.0,-,N/A,,Partly Cloudy,160,2012-11-18 22:56:00
5:56 PM,54.0,28.9,38,30.16,10.0,South,12.7,-,N/A,,Mostly Cloudy,170,2012-11-18 23:56:00
6:56 PM,53.1,30.0,41,30.18,10.0,South,12.7,-,N/A,,Overcast,180,2012-11-19 00:56:00
7:56 PM,51.1,30.9,46,30.18,10.0,South,10.4,-,N/A,,Clear,180,2012-11-19 01:56:00
8:56 PM,50.0,32.0,50,30.18,10.0,SSE,9.2,-,N/A,,Clear,160,2012-11-19 02:56:00
9:56 PM,48.9,32.0,52,30.18,10.0,South,8.1,-,N/A,,Clear,170,2012-11-19 03:56:00
10:56 PM,48.0,32.0,54,30.18,10.0,South,10.4,-,N/A,,Clear,170,2012-11-19 04:56:00
11:56 PM,46.9,32.0,56,30.18,10.0,South,9.2,-,N/A,,Clear,170,2012-11-19 05:56:00